PUA2603 SPJC-SEQM

Flight info

Callsign PUA2603
Flight time 1h 53m
Altitude 38000
Route ATATU UM674 BOBUG/N0463F390 UM674 ROBIG/N0461F400 UM674 KETOM
Aircraft A339/H-SADE1E2E3GHIJ3J5M1P2RWXY/LB2D1

Departure

Time 2026-04-29 04:20
Airport Jorge Chávez International Airport (SPJC)

Arrival

Time 2026-04-29 06:13
Airport Mariscal Sucre International Airport (SEQM)
Time Latitude Longitude Altitude Speed Heading
2026-04-29 04:20 -12.11939 -77.29089 12341 ft 336 kts 327°
2026-04-29 04:20 -12.09991 -77.30411 12898 ft 340 kts 327°
2026-04-29 04:20 -12.07988 -77.31772 13471 ft 344 kts 327°
2026-04-29 04:20 -12.05997 -77.33137 14029 ft 347 kts 327°
2026-04-29 04:21 -12.03985 -77.34528 14603 ft 350 kts 327°
2026-04-29 04:21 -12.01983 -77.35920 15163 ft 354 kts 326°
2026-04-29 04:21 -11.99925 -77.37354 15678 ft 357 kts 326°
2026-04-29 04:21 -11.97871 -77.38789 16254 ft 360 kts 326°
2026-04-29 04:22 -11.95791 -77.40241 16801 ft 363 kts 326°
2026-04-29 04:22 -11.93717 -77.41691 17294 ft 367 kts 326°
2026-04-29 04:22 -11.91594 -77.43175 17823 ft 370 kts 326°
2026-04-29 04:22 -11.89484 -77.44649 18399 ft 373 kts 326°
2026-04-29 04:23 -11.87315 -77.46162 18904 ft 376 kts 326°
2026-04-29 04:23 -11.85154 -77.47672 19417 ft 379 kts 326°
2026-04-29 04:23 -11.82982 -77.49189 19914 ft 381 kts 326°
2026-04-29 04:23 -11.80783 -77.50724 20420 ft 384 kts 326°
2026-04-29 04:24 -11.78570 -77.52266 20920 ft 387 kts 326°
2026-04-29 04:24 -11.76286 -77.53737 21419 ft 389 kts 328°
2026-04-29 04:24 -11.73966 -77.55166 21867 ft 392 kts 329°
2026-04-29 04:24 -11.71610 -77.56609 22332 ft 395 kts 329°
2026-04-29 04:25 -11.69249 -77.58054 22813 ft 397 kts 329°
2026-04-29 04:25 -11.66870 -77.59512 23330 ft 398 kts 329°
2026-04-29 04:25 -11.64497 -77.60967 23865 ft 398 kts 329°
2026-04-29 04:25 -11.62113 -77.62428 24424 ft 398 kts 329°
2026-04-29 04:26 -11.59757 -77.63873 24955 ft 398 kts 329°
2026-04-29 04:26 -11.57376 -77.65333 25483 ft 398 kts 329°
2026-04-29 04:26 -11.55006 -77.66785 25957 ft 399 kts 329°
2026-04-29 04:26 -11.52636 -77.68237 26414 ft 400 kts 329°
2026-04-29 04:27 -11.50237 -77.69707 26862 ft 402 kts 329°
2026-04-29 04:27 -11.47824 -77.71185 27335 ft 402 kts 329°
2026-04-29 04:27 -11.45447 -77.72642 27779 ft 403 kts 329°
2026-04-29 04:27 -11.43055 -77.74106 28242 ft 403 kts 329°
2026-04-29 04:28 -11.40648 -77.75580 28650 ft 405 kts 329°
2026-04-29 04:28 -11.38222 -77.77065 29045 ft 406 kts 329°
2026-04-29 04:28 -11.35802 -77.78545 29451 ft 408 kts 329°
2026-04-29 04:28 -11.33351 -77.80045 29848 ft 409 kts 329°
2026-04-29 04:29 -11.30920 -77.81531 30216 ft 411 kts 329°
2026-04-29 04:29 -11.28468 -77.83031 30589 ft 412 kts 329°
2026-04-29 04:29 -11.26002 -77.84540 30929 ft 414 kts 329°
2026-04-29 04:29 -11.23532 -77.86052 31274 ft 416 kts 329°
2026-04-29 04:30 -11.21069 -77.87558 31605 ft 418 kts 329°
2026-04-29 04:30 -11.18568 -77.89085 31937 ft 419 kts 328°
2026-04-29 04:30 -11.13536 -77.92121 32572 ft 423 kts 331°
2026-04-29 04:31 -11.10870 -77.93478 32946 ft 425 kts 335°
2026-04-29 04:31 -11.08156 -77.94623 33304 ft 427 kts 339°
2026-04-29 04:31 -11.05327 -77.95582 33661 ft 429 kts 342°
2026-04-29 04:31 -11.02395 -77.96338 34017 ft 432 kts 347°
2026-04-29 04:32 -10.99429 -77.96873 34329 ft 435 kts 351°
2026-04-29 04:32 -10.96407 -77.97187 34652 ft 437 kts 355°
2026-04-29 04:32 -10.93400 -77.97358 35055 ft 437 kts 355°
2026-04-29 04:32 -10.90352 -77.97512 35551 ft 435 kts 355°
2026-04-29 04:33 -10.87317 -77.97663 36068 ft 433 kts 356°
2026-04-29 04:33 -10.84314 -77.97812 36490 ft 432 kts 356°
2026-04-29 04:33 -10.81307 -77.97962 36791 ft 433 kts 356°
2026-04-29 04:33 -10.78288 -77.98114 37029 ft 435 kts 356°
2026-04-29 04:34 -10.75243 -77.98268 37287 ft 436 kts 356°
2026-04-29 04:34 -10.72231 -77.98420 37562 ft 437 kts 356°
2026-04-29 04:34 -10.69154 -77.98574 37839 ft 438 kts 356°
2026-04-29 04:35 -10.63049 -77.98882 37935 ft 440 kts 356°
2026-04-29 04:35 -10.56936 -77.99190 37937 ft 440 kts 356°
2026-04-29 04:36 -10.50796 -77.99500 37937 ft 441 kts 356°
2026-04-29 04:36 -10.44674 -77.99809 37939 ft 441 kts 356°
2026-04-29 04:37 -10.38540 -78.00117 37943 ft 441 kts 356°
2026-04-29 04:37 -10.32421 -78.00425 37952 ft 441 kts 356°
2026-04-29 04:38 -10.26279 -78.00733 37956 ft 441 kts 356°
2026-04-29 04:38 -10.20167 -78.01041 37966 ft 441 kts 356°
2026-04-29 04:39 -10.14005 -78.01354 37979 ft 441 kts 356°
2026-04-29 04:39 -10.07872 -78.01666 37958 ft 442 kts 356°
2026-04-29 04:40 -10.01705 -78.01977 37955 ft 442 kts 356°
2026-04-29 04:40 -9.95559 -78.02286 37965 ft 442 kts 356°
2026-04-29 04:41 -9.89385 -78.02598 37992 ft 443 kts 356°
2026-04-29 04:41 -9.83237 -78.02908 38029 ft 442 kts 356°
2026-04-29 04:42 -9.77079 -78.03217 38065 ft 442 kts 356°
2026-04-29 04:42 -9.70904 -78.03526 38089 ft 443 kts 356°
2026-04-29 04:43 -9.64717 -78.03837 38054 ft 443 kts 356°
2026-04-29 04:43 -9.58530 -78.04148 38073 ft 444 kts 356°
2026-04-29 04:44 -9.52379 -78.04456 38082 ft 444 kts 356°
2026-04-29 04:44 -9.46181 -78.04768 38090 ft 444 kts 356°
2026-04-29 04:45 -9.39990 -78.05077 38191 ft 444 kts 356°
2026-04-29 04:45 -9.33804 -78.05387 38275 ft 444 kts 356°
2026-04-29 04:46 -9.27623 -78.05698 38373 ft 444 kts 356°
2026-04-29 04:46 -9.21417 -78.06008 38442 ft 444 kts 356°
2026-04-29 04:47 -9.15249 -78.06316 38494 ft 444 kts 356°
2026-04-29 04:47 -9.09021 -78.06629 38522 ft 445 kts 356°
2026-04-29 04:48 -9.02848 -78.06938 38549 ft 445 kts 356°
2026-04-29 04:48 -8.96654 -78.07247 38587 ft 445 kts 356°
2026-04-29 04:49 -8.90443 -78.07559 38606 ft 445 kts 356°
2026-04-29 04:49 -8.84241 -78.07869 38599 ft 445 kts 356°
2026-04-29 04:50 -8.78031 -78.08179 38611 ft 445 kts 356°
2026-04-29 04:50 -8.71829 -78.08490 38609 ft 446 kts 357°
2026-04-29 04:51 -8.65624 -78.08799 38632 ft 445 kts 357°
2026-04-29 04:51 -8.59440 -78.09109 38678 ft 445 kts 357°
2026-04-29 04:52 -8.53224 -78.09419 38685 ft 445 kts 357°
2026-04-29 04:52 -8.47054 -78.09727 38701 ft 445 kts 357°
2026-04-29 04:53 -8.40850 -78.10036 38705 ft 445 kts 357°
2026-04-29 04:53 -8.34632 -78.10345 38709 ft 446 kts 357°
2026-04-29 04:54 -8.28439 -78.10653 38711 ft 446 kts 357°
2026-04-29 04:54 -8.22231 -78.10960 38704 ft 446 kts 357°
2026-04-29 04:55 -8.16019 -78.11269 38719 ft 447 kts 357°
2026-04-29 04:55 -8.12874 -78.11427 38941 ft 449 kts 357°
2026-04-29 04:55 -8.09739 -78.11585 39359 ft 447 kts 357°
2026-04-29 04:55 -8.06644 -78.11741 39733 ft 446 kts 357°
2026-04-29 04:56 -8.03552 -78.11895 39743 ft 446 kts 357°
2026-04-29 04:56 -7.97361 -78.12205 39753 ft 445 kts 357°
2026-04-29 04:57 -7.91120 -78.12516 39744 ft 446 kts 358°
2026-04-29 04:57 -7.84935 -78.12824 39736 ft 446 kts 358°
2026-04-29 04:58 -7.78726 -78.13132 39729 ft 446 kts 358°
2026-04-29 04:58 -7.72488 -78.13442 39691 ft 447 kts 358°
2026-04-29 04:59 -7.66249 -78.13751 39679 ft 447 kts 358°
2026-04-29 04:59 -7.60021 -78.14059 39650 ft 448 kts 358°
2026-04-29 05:00 -7.53785 -78.14372 39622 ft 448 kts 358°
2026-04-29 05:00 -7.47563 -78.14681 39601 ft 448 kts 358°
2026-04-29 05:01 -7.41293 -78.14992 39598 ft 448 kts 358°
2026-04-29 05:01 -7.35067 -78.15299 39594 ft 449 kts 358°
2026-04-29 05:02 -7.28780 -78.15609 39591 ft 449 kts 358°
2026-04-29 05:02 -7.22537 -78.15916 39578 ft 450 kts 358°
2026-04-29 05:03 -7.16287 -78.16224 39556 ft 450 kts 358°
2026-04-29 05:03 -7.10027 -78.16532 39539 ft 450 kts 358°
2026-04-29 05:04 -7.03756 -78.16840 39524 ft 450 kts 358°
2026-04-29 05:04 -6.97446 -78.17151 39512 ft 451 kts 358°
2026-04-29 05:05 -6.91175 -78.17460 39498 ft 451 kts 358°
2026-04-29 05:05 -6.84892 -78.17769 39494 ft 451 kts 358°
2026-04-29 05:06 -6.78577 -78.18079 39478 ft 451 kts 358°
2026-04-29 05:06 -6.72285 -78.18387 39467 ft 452 kts 358°
2026-04-29 05:07 -6.65987 -78.18698 39602 ft 454 kts 358°
2026-04-29 05:07 -6.62801 -78.18855 39982 ft 452 kts 358°
2026-04-29 05:07 -6.59695 -78.19008 40352 ft 451 kts 358°
2026-04-29 05:08 -6.53394 -78.19318 40413 ft 452 kts 358°
2026-04-29 05:08 -6.47117 -78.19625 40388 ft 451 kts 357°
2026-04-29 05:09 -6.40790 -78.19936 40391 ft 452 kts 357°
2026-04-29 05:09 -6.34517 -78.20242 40418 ft 452 kts 357°
2026-04-29 05:10 -6.28217 -78.20551 40435 ft 452 kts 357°
2026-04-29 05:10 -6.21913 -78.20858 40447 ft 452 kts 357°
2026-04-29 05:11 -6.15590 -78.21167 40427 ft 452 kts 357°
2026-04-29 05:11 -6.09326 -78.21474 40394 ft 452 kts 357°
2026-04-29 05:12 -6.02991 -78.21783 40369 ft 452 kts 357°
2026-04-29 05:12 -5.96697 -78.22090 40345 ft 453 kts 357°
2026-04-29 05:13 -5.90366 -78.22399 40301 ft 453 kts 357°
2026-04-29 05:13 -5.84049 -78.22709 40274 ft 454 kts 357°
2026-04-29 05:14 -5.77765 -78.23016 40227 ft 453 kts 357°
2026-04-29 05:14 -5.71427 -78.23325 40230 ft 453 kts 357°
2026-04-29 05:15 -5.65102 -78.23634 40264 ft 454 kts 357°
2026-04-29 05:15 -5.58786 -78.23941 40301 ft 455 kts 357°
2026-04-29 05:16 -5.52449 -78.24249 40383 ft 455 kts 357°
2026-04-29 05:16 -5.46127 -78.24558 40425 ft 455 kts 357°
2026-04-29 05:17 -5.39768 -78.24868 40320 ft 456 kts 357°
2026-04-29 05:17 -5.33443 -78.25177 40228 ft 456 kts 358°
2026-04-29 05:18 -5.27067 -78.25487 40131 ft 456 kts 358°
2026-04-29 05:18 -5.20748 -78.25795 40062 ft 456 kts 358°
2026-04-29 05:19 -5.14373 -78.26105 40039 ft 457 kts 358°
2026-04-29 05:19 -5.08020 -78.26414 40027 ft 458 kts 357°
2026-04-29 05:20 -5.01654 -78.26724 40029 ft 457 kts 358°
2026-04-29 05:20 -4.95280 -78.27035 40023 ft 458 kts 358°
2026-04-29 05:21 -4.88896 -78.27344 40032 ft 459 kts 357°
2026-04-29 05:21 -4.82503 -78.27657 40027 ft 459 kts 358°
2026-04-29 05:22 -4.76098 -78.27968 40018 ft 459 kts 358°
2026-04-29 05:22 -4.69700 -78.28278 40024 ft 459 kts 358°
2026-04-29 05:23 -4.63310 -78.28590 40019 ft 459 kts 358°
2026-04-29 05:23 -4.56917 -78.28900 40024 ft 459 kts 358°
2026-04-29 05:24 -4.50538 -78.29210 40031 ft 460 kts 358°
2026-04-29 05:24 -4.44090 -78.29524 40028 ft 460 kts 358°
2026-04-29 05:25 -4.37694 -78.29835 40030 ft 460 kts 358°
2026-04-29 05:25 -4.31276 -78.30146 40053 ft 460 kts 358°
2026-04-29 05:26 -4.24852 -78.30457 40075 ft 461 kts 358°
2026-04-29 05:26 -4.18459 -78.30767 40094 ft 461 kts 358°
2026-04-29 05:27 -4.12038 -78.31080 40109 ft 461 kts 358°
2026-04-29 05:27 -4.02385 -78.31548 40134 ft 462 kts 358°
2026-04-29 05:28 -3.95961 -78.31859 40153 ft 462 kts 358°
2026-04-29 05:28 -3.89490 -78.32173 40147 ft 462 kts 358°
2026-04-29 05:29 -3.83056 -78.32484 40135 ft 463 kts 358°
2026-04-29 05:29 -3.76620 -78.32797 40119 ft 463 kts 358°
2026-04-29 05:30 -3.70179 -78.33108 40116 ft 463 kts 358°
2026-04-29 05:30 -3.63727 -78.33421 40111 ft 463 kts 358°
2026-04-29 05:31 -3.57241 -78.33733 40134 ft 464 kts 358°
2026-04-29 05:31 -3.50786 -78.34045 40128 ft 464 kts 358°
2026-04-29 05:32 -3.44334 -78.34365 40156 ft 464 kts 358°
2026-04-29 05:32 -3.37901 -78.34686 40169 ft 464 kts 358°
2026-04-29 05:33 -3.31415 -78.35009 40187 ft 465 kts 358°
2026-04-29 05:33 -3.24957 -78.35329 40179 ft 465 kts 358°
2026-04-29 05:34 -3.18450 -78.35651 40193 ft 465 kts 358°
2026-04-29 05:34 -3.11987 -78.35971 40195 ft 465 kts 358°
2026-04-29 05:35 -3.05504 -78.36292 40222 ft 466 kts 358°
2026-04-29 05:35 -2.99029 -78.36613 40225 ft 466 kts 358°
2026-04-29 05:36 -2.92550 -78.36933 40226 ft 466 kts 358°
2026-04-29 05:36 -2.86087 -78.37253 40264 ft 466 kts 358°
2026-04-29 05:37 -2.79581 -78.37575 40248 ft 466 kts 358°
2026-04-29 05:37 -2.73054 -78.37897 40278 ft 467 kts 358°
2026-04-29 05:38 -2.66601 -78.38217 40303 ft 467 kts 358°
2026-04-29 05:38 -2.60093 -78.38538 40336 ft 467 kts 357°
2026-04-29 05:39 -2.53550 -78.38862 40402 ft 468 kts 357°
2026-04-29 05:39 -2.47027 -78.39185 40440 ft 468 kts 357°
2026-04-29 05:40 -2.40523 -78.39507 40461 ft 468 kts 357°
2026-04-29 05:40 -2.34006 -78.39829 40485 ft 469 kts 357°
2026-04-29 05:41 -2.27452 -78.40151 40522 ft 469 kts 357°
2026-04-29 05:41 -2.20954 -78.40473 40531 ft 469 kts 357°
2026-04-29 05:42 -2.14394 -78.40797 40531 ft 469 kts 357°
2026-04-29 05:42 -2.07887 -78.41119 40532 ft 469 kts 357°
2026-04-29 05:43 -2.01318 -78.41443 40525 ft 470 kts 357°
2026-04-29 05:43 -1.94789 -78.41766 40532 ft 470 kts 357°
2026-04-29 05:44 -1.88214 -78.42091 40550 ft 470 kts 357°
2026-04-29 05:44 -1.81683 -78.42413 40557 ft 471 kts 357°
2026-04-29 05:45 -1.75101 -78.42738 40581 ft 471 kts 357°
2026-04-29 05:45 -1.68573 -78.43060 40552 ft 471 kts 357°
2026-04-29 05:46 -1.65288 -78.43223 40021 ft 475 kts 357°
2026-04-29 05:46 -1.61949 -78.43390 39380 ft 474 kts 358°
2026-04-29 05:46 -1.58660 -78.43554 38865 ft 469 kts 358°
2026-04-29 05:46 -1.55439 -78.43714 38383 ft 465 kts 358°
2026-04-29 05:47 -1.52203 -78.43872 37882 ft 461 kts 358°
2026-04-29 05:47 -1.48983 -78.44029 37331 ft 459 kts 358°
2026-04-29 05:47 -1.45796 -78.44186 36783 ft 457 kts 358°
2026-04-29 05:47 -1.42585 -78.44344 36199 ft 456 kts 358°
2026-04-29 05:48 -1.39417 -78.44498 35639 ft 454 kts 358°
2026-04-29 05:48 -1.36289 -78.44653 35089 ft 453 kts 358°
2026-04-29 05:48 -1.33146 -78.44808 34588 ft 451 kts 358°
2026-04-29 05:48 -1.29963 -78.44964 34270 ft 454 kts 358°
2026-04-29 05:49 -1.26810 -78.45119 33934 ft 454 kts 358°
2026-04-29 05:49 -1.23645 -78.45275 33591 ft 452 kts 358°
2026-04-29 05:49 -1.20503 -78.45429 33252 ft 449 kts 358°
2026-04-29 05:49 -1.17411 -78.45581 32906 ft 447 kts 358°
2026-04-29 05:50 -1.14288 -78.45735 32564 ft 444 kts 358°
2026-04-29 05:50 -1.11201 -78.45888 32248 ft 442 kts 358°
2026-04-29 05:50 -1.08137 -78.46039 31907 ft 440 kts 358°
2026-04-29 05:50 -1.05079 -78.46191 31538 ft 437 kts 358°
2026-04-29 05:51 -1.02039 -78.46339 31160 ft 434 kts 358°
2026-04-29 05:51 -0.99001 -78.46488 30775 ft 432 kts 358°
2026-04-29 05:51 -0.96043 -78.46633 30400 ft 428 kts 358°
2026-04-29 05:51 -0.93036 -78.46780 30027 ft 425 kts 358°
2026-04-29 05:52 -0.90083 -78.46925 29653 ft 422 kts 358°
2026-04-29 05:52 -0.87141 -78.47067 29263 ft 420 kts 358°
2026-04-29 05:52 -0.84258 -78.47208 28897 ft 417 kts 358°
2026-04-29 05:52 -0.81333 -78.47352 28521 ft 414 kts 358°
2026-04-29 05:53 -0.78480 -78.47491 28168 ft 411 kts 358°
2026-04-29 05:53 -0.75614 -78.47630 27830 ft 407 kts 358°
2026-04-29 05:53 -0.72822 -78.47767 27499 ft 404 kts 359°
2026-04-29 05:53 -0.69993 -78.47906 27153 ft 401 kts 358°
2026-04-29 05:54 -0.67225 -78.48041 26825 ft 398 kts 359°
2026-04-29 05:54 -0.64448 -78.48177 26488 ft 395 kts 359°
2026-04-29 05:54 -0.61728 -78.48308 26150 ft 392 kts 358°
2026-04-29 05:54 -0.58983 -78.48443 25819 ft 390 kts 359°
2026-04-29 05:55 -0.56281 -78.48574 25492 ft 387 kts 359°
2026-04-29 05:55 -0.53590 -78.48707 25164 ft 384 kts 359°
2026-04-29 05:55 -0.50931 -78.48836 24825 ft 382 kts 359°
2026-04-29 05:55 -0.48264 -78.48966 24485 ft 380 kts 359°
2026-04-29 05:56 -0.45639 -78.49094 24136 ft 378 kts 359°
2026-04-29 05:56 -0.42989 -78.49224 23791 ft 376 kts 359°
2026-04-29 05:56 -0.40383 -78.49350 23448 ft 374 kts 359°
2026-04-29 05:56 -0.37769 -78.49478 23101 ft 373 kts 359°
2026-04-29 05:57 -0.35200 -78.49603 22754 ft 372 kts 359°
2026-04-29 05:57 -0.32613 -78.49730 22403 ft 371 kts 359°
2026-04-29 05:57 -0.30007 -78.49857 22047 ft 370 kts 359°
2026-04-29 05:57 -0.27450 -78.49980 21686 ft 369 kts 359°
2026-04-29 05:58 -0.24872 -78.50107 21335 ft 368 kts 359°
2026-04-29 05:58 -0.22325 -78.50232 20989 ft 367 kts 359°
2026-04-29 05:58 -0.19748 -78.50356 20654 ft 366 kts 359°
2026-04-29 05:58 -0.17199 -78.50480 20312 ft 365 kts 359°
2026-04-29 05:59 -0.14653 -78.50605 19958 ft 364 kts 359°
2026-04-29 05:59 -0.12138 -78.50727 19621 ft 362 kts 360°
2026-04-29 05:59 -0.09609 -78.50816 19272 ft 360 kts
2026-04-29 05:59 -0.07227 -78.50247 18891 ft 353 kts 28°
2026-04-29 06:00 -0.05259 -78.48824 18526 ft 343 kts 50°
2026-04-29 06:00 -0.04152 -78.46784 18248 ft 330 kts 79°
2026-04-29 06:00 -0.04201 -78.44577 18202 ft 312 kts 107°
2026-04-29 06:00 -0.05289 -78.42802 18182 ft 300 kts 137°
2026-04-29 06:01 -0.07109 -78.41867 18181 ft 294 kts 168°
2026-04-29 06:01 -0.09126 -78.42032 18186 ft 293 kts 201°
2026-04-29 06:01 -0.10774 -78.43210 18192 ft 297 kts 226°
2026-04-29 06:01 -0.12111 -78.44785 18144 ft 297 kts 228°
2026-04-29 06:02 -0.13500 -78.46329 18101 ft 297 kts 224°
2026-04-29 06:02 -0.14977 -78.47768 18087 ft 296 kts 221°
2026-04-29 06:02 -0.16525 -78.49132 17944 ft 297 kts 213°
2026-04-29 06:02 -0.18373 -78.49921 17572 ft 290 kts 181°
2026-04-29 06:03 -0.20379 -78.49869 17308 ft 283 kts 170°
2026-04-29 06:03 -0.22331 -78.49606 17036 ft 280 kts 169°
2026-04-29 06:03 -0.24236 -78.49355 16761 ft 277 kts 170°
2026-04-29 06:03 -0.26155 -78.49145 16479 ft 273 kts 171°
2026-04-29 06:04 -0.28048 -78.48968 16209 ft 268 kts 172°
2026-04-29 06:04 -0.29864 -78.48817 15996 ft 257 kts 172°
2026-04-29 06:04 -0.31628 -78.48676 15830 ft 248 kts 172°
2026-04-29 06:04 -0.33322 -78.48541 15671 ft 239 kts 172°
2026-04-29 06:05 -0.34958 -78.48374 15468 ft 233 kts 167°
2026-04-29 06:05 -0.36511 -78.47951 15230 ft 229 kts 156°
2026-04-29 06:05 -0.37935 -78.47251 14993 ft 225 kts 146°
2026-04-29 06:05 -0.39220 -78.46386 14735 ft 221 kts 140°
2026-04-29 06:06 -0.40396 -78.45400 14488 ft 218 kts 134°
2026-04-29 06:06 -0.41429 -78.44336 14404 ft 206 kts 129°
2026-04-29 06:06 -0.42190 -78.43179 14355 ft 192 kts 108°
2026-04-29 06:06 -0.42379 -78.41896 14087 ft 191 kts 83°
2026-04-29 06:07 -0.41972 -78.40631 13781 ft 193 kts 58°
2026-04-29 06:07 -0.41054 -78.39666 13494 ft 194 kts 34°
2026-04-29 06:07 -0.39834 -78.39026 13083 ft 203 kts 27°
2026-04-29 06:07 -0.38505 -78.38438 12502 ft 216 kts 25°
2026-04-29 06:08 -0.37108 -78.37830 12037 ft 220 kts 25°
2026-04-29 06:08 -0.35709 -78.37213 11745 ft 213 kts 25°
2026-04-29 06:08 -0.34392 -78.36626 11474 ft 201 kts 25°
2026-04-29 06:08 -0.33161 -78.36074 11273 ft 188 kts 25°
2026-04-29 06:09 -0.31992 -78.35546 11049 ft 177 kts 25°
2026-04-29 06:09 -0.30874 -78.35104 10830 ft 170 kts 17°
2026-04-29 06:09 -0.29721 -78.34875 10693 ft 168 kts
2026-04-29 06:09 -0.28551 -78.34805 10688 ft 167 kts
2026-04-29 06:10 -0.27380 -78.34811 10641 ft 167 kts
2026-04-29 06:10 -0.26206 -78.34849 10420 ft 167 kts 359°
2026-04-29 06:10 -0.25047 -78.34898 10191 ft 166 kts 358°
2026-04-29 06:10 -0.23888 -78.34950 9959 ft 165 kts 358°
2026-04-29 06:11 -0.22733 -78.35001 9726 ft 164 kts 358°
2026-04-29 06:11 -0.21595 -78.35049 9495 ft 164 kts 358°
2026-04-29 06:11 -0.20452 -78.35098 9266 ft 163 kts 358°
2026-04-29 06:11 -0.19307 -78.35147 9037 ft 162 kts 358°
2026-04-29 06:12 -0.18172 -78.35196 8812 ft 162 kts 358°
2026-04-29 06:12 -0.17045 -78.35244 8586 ft 161 kts 358°
2026-04-29 06:12 -0.15916 -78.35292 8366 ft 161 kts 358°
2026-04-29 06:12 -0.14795 -78.35338 8154 ft 159 kts 358°
2026-04-29 06:13 -0.13704 -78.35381 7974 ft 154 kts 359°
2026-04-29 06:13 -0.12725 -78.35419 7916 ft 118 kts 358°
2026-04-29 06:13 -0.12084 -78.35455 7869 ft 65 kts 359°
2026-04-29 06:13 -0.11803 -78.35486 7851 ft 25 kts 341°
2026-04-29 06:14 -0.11657 -78.35559 7847 ft 19 kts 327°
2026-04-29 06:14 -0.11635 -78.35632 7845 ft 8 kts 201°
2026-04-29 06:14 -0.11661 -78.35634 7846 ft 7 kts 184°
2026-04-29 06:14 -0.11747 -78.35639 7849 ft 12 kts 180°
2026-04-29 06:15 -0.11824 -78.35638 7852 ft 9 kts 178°
2026-04-29 06:15 -0.11879 -78.35636 7855 ft 6 kts 178°
2026-04-29 06:15 -0.11924 -78.35634 7857 ft 6 kts 177°
2026-04-29 06:15 -0.12002 -78.35630 7860 ft 15 kts 176°
2026-04-29 06:16 -0.12115 -78.35623 7867 ft 15 kts 176°
2026-04-29 06:16 -0.12217 -78.35618 7873 ft 13 kts 178°
2026-04-29 06:16 -0.12309 -78.35617 7879 ft 11 kts 188°
2026-04-29 06:16 -0.12356 -78.35672 7879 ft 11 kts 257°
2026-04-29 06:17 -0.12365 -78.35767 7874 ft 15 kts 269°
2026-04-29 06:17 -0.12325 -78.35837 7868 ft 9 kts 331°
2026-04-29 06:17 -0.12308 -78.35870 7865 ft 6 kts 262°
2026-04-29 06:17 -0.12313 -78.35924 7861 ft 4 kts 267°
2026-04-29 06:18 -0.12314 -78.35931 7861 ft 0 kts 267°